Weather History for KGCD - September, 2013

Change the Weather History Date:

Thursday, September 5, 2013

  Actual Average (KBNO) Record (KBNO)
Temperature  
Mean Temperature 70 °F 60 °F  
Max Temperature 84 °F 79 °F 99 °F (1955)
Min Temperature 55 °F 40 °F 28 °F (2010)
Degree Days  
Heating Degree Days 0 6  
Month to date heating degree days 28  
Since 1 July heating degree days 165  
Cooling Degree Days 4 1  
Month to date cooling degree days 5  
Year to date cooling degree days 211  
Growing Degree Days 20 (Base 50)    
Moisture  
Dew Point 53 °F    
Average Humidity 70    
Maximum Humidity 91    
Minimum Humidity 25    
Precipitation  
Precipitation 0.06 in 0.02 in 0.38 in (1978)
Month to date precipitation 0.07  
Year to date precipitation 7.05  
Sea Level Pressure  
Sea Level Pressure 30.00 in    
Wind  
Wind Speed 7 mph (SSE)    
Max Wind Speed 24 mph    
Max Gust Speed 41 mph    
Visibility 10 miles    
Events Rain , Thunderstorm    
T = Trace of Precipitation, MM = Missing Value Source: NWS Daily Summary

Daily Weather History Graph

Daily Weather History Graph

Search for Another Location

Airport or City:

Trip Planner

Search our weather history database for the weather conditions in past years. The results will help you decide how hot, cold, wet, or windy it might be!

Date:

Astronomy

Sep. 05, 2013 Rise Set
Actual Time 6:23 AM PDT 7:24 PM PDT
Civil Twilight 5:53 AM PDT 7:53 PM PDT
Nautical Twilight 5:18 AM PDT 8:29 PM PDT
Astronomical Twilight 4:41 AM PDT 9:06 PM PDT
Moon 6:42 AM PDT 7:14 PM PDT
Length of Visible Light 13h 59m
Length of Day
13h 00m
New Moon, 0% of the Moon is Illuminated
Sep 5
New Moon
Sep 12
First Quarter
Sep 19
Full
Sep 26
Last Quarter
Oct 4
New

Hourly Weather History & Observations

Time (PDT) Temp. Dew Point Humidity Pressure Visibility Wind Dir Wind Speed Gust Speed Precip Events Conditions
12:15 AM 62.1 °F 57.6 °F 85% 30.02 in 10.0 mi ESE 5.8 mph - N/A   Clear
12:35 AM 61.3 °F 57.7 °F 88% 30.01 in 10.0 mi ESE 5.8 mph - N/A   Clear
12:55 AM 61.7 °F 57.6 °F 86% 30.02 in 10.0 mi ESE 8.1 mph - N/A   Clear
1:15 AM 61.9 °F 57.9 °F 87% 30.02 in 10.0 mi SE 6.9 mph - N/A   Clear
1:35 AM 61.9 °F 57.4 °F 85% 30.01 in 10.0 mi East 4.6 mph - N/A   Clear
1:55 AM 61.2 °F 57.4 °F 87% 30.02 in 10.0 mi South 9.2 mph - N/A   Clear
2:15 AM 60.8 °F 56.7 °F 86% 30.01 in 10.0 mi SSE 6.9 mph - N/A   Clear
2:35 AM 60.8 °F 56.3 °F 85% 30.01 in 10.0 mi ESE 6.9 mph - N/A   Clear
2:55 AM 61.9 °F 55.6 °F 80% 30.01 in 10.0 mi SE 6.9 mph - N/A   Clear
3:15 AM 60.8 °F 55.9 °F 84% 30.01 in 10.0 mi SSE 9.2 mph - N/A   Clear
3:35 AM 60.8 °F 55.6 °F 83% 30.01 in 10.0 mi SE 10.4 mph - N/A   Clear
3:55 AM 60.4 °F 55.6 °F 84% 30.01 in 10.0 mi ESE 8.1 mph - N/A   Clear
4:15 AM 59.4 °F 56.5 °F 90% 30.01 in 10.0 mi ESE 9.2 mph - N/A   Clear
4:35 AM 59.2 °F 56.5 °F 91% 30.01 in 10.0 mi ESE 6.9 mph - N/A   Clear
4:55 AM 58.6 °F 55.6 °F 90% 30.00 in 10.0 mi ESE 5.8 mph - N/A   Clear
5:15 AM 59.2 °F 55.4 °F 87% 30.00 in 10.0 mi East 5.8 mph - N/A   Clear
5:35 AM 58.1 °F 55.4 °F 91% 30.00 in 10.0 mi Calm Calm - N/A   Clear
5:55 AM 58.6 °F 56.1 °F 91% 30.01 in 10.0 mi East 6.9 mph - N/A   Clear
6:15 AM 59.0 °F 56.1 °F 90% 30.01 in 10.0 mi ESE 6.9 mph - N/A   Clear
6:35 AM 59.4 °F 54.7 °F 84% 30.01 in 10.0 mi SSE 4.6 mph - N/A   Clear
6:55 AM 59.0 °F 54.5 °F 85% 30.01 in 10.0 mi Calm Calm - N/A   Clear
7:15 AM 57.4 °F 54.5 °F 90% 30.01 in 10.0 mi West 3.5 mph - N/A   Clear
7:35 AM 57.2 °F 54.7 °F 91% 30.02 in 10.0 mi West 6.9 mph - N/A   Clear
7:55 AM 59.2 °F 56.5 °F 91% 30.02 in 10.0 mi West 5.8 mph - N/A   Clear
8:15 AM 61.2 °F 57.0 °F 86% 30.02 in 10.0 mi West 4.6 mph - N/A   Clear
8:35 AM 62.1 °F 57.6 °F 85% 30.02 in 10.0 mi WNW 8.1 mph - N/A   Clear
8:55 AM 62.6 °F 57.9 °F 85% 30.02 in 10.0 mi NW 5.8 mph - N/A   Clear
9:15 AM 64.4 °F 57.0 °F 77% 30.01 in 10.0 mi Calm Calm - N/A   Clear
9:35 AM 68.2 °F 57.4 °F 68% 30.01 in 10.0 mi Calm Calm - N/A   Clear
9:55 AM 69.6 °F 56.8 °F 64% 30.01 in 10.0 mi ESE 3.5 mph - N/A   Clear
10:15 AM 71.4 °F 57.7 °F 62% 30.01 in 10.0 mi ENE 8.1 mph - N/A   Clear
10:35 AM 73.4 °F 55.9 °F 54% 30.01 in 10.0 mi NE 5.8 mph - N/A   Clear
10:55 AM 75.4 °F 53.8 °F 47% 30.01 in 10.0 mi NE 5.8 mph - N/A   Clear
11:15 AM 76.5 °F 52.3 °F 43% 30.00 in 10.0 mi NE 8.1 mph - N/A   Clear
11:35 AM 78.1 °F 52.5 °F 41% 30.00 in 10.0 mi East 9.2 mph - N/A   Clear
11:55 AM 77.7 °F 51.3 °F 40% 29.99 in 10.0 mi East 3.5 mph - N/A   Scattered Clouds
12:15 PM 81.5 °F 50.5 °F 34% 29.99 in 10.0 mi SE 10.4 mph 16.1 mph N/A   Scattered Clouds
12:35 PM 82.0 °F 48.4 °F 31% 29.98 in 10.0 mi SSE 12.7 mph 18.4 mph N/A   Scattered Clouds
12:55 PM 82.9 °F 46.2 °F 28% 29.97 in 10.0 mi SSE 17.3 mph 23.0 mph N/A   Clear
1:15 PM 83.1 °F 44.6 °F 26% 29.96 in 10.0 mi SSE 9.2 mph 20.7 mph N/A   Clear
1:35 PM 84.0 °F 45.3 °F 26% 29.95 in 10.0 mi SE 17.3 mph 26.5 mph N/A   Clear
1:55 PM 83.3 °F 43.5 °F 25% 29.94 in 10.0 mi South 13.8 mph 21.9 mph N/A   Clear
2:15 PM 80.8 °F 42.3 °F 25% 29.91 in 10.0 mi SSE 8.1 mph - N/A   Clear
2:35 PM 78.8 °F 42.3 °F 27% 29.91 in 10.0 mi SSW 8.1 mph - N/A Thunderstorm Mostly Cloudy
2:55 PM 64.8 °F 49.3 °F 57% 29.98 in 4.0 mi WSW 24.2 mph 41.4 mph 0.05 in Rain , Thunderstorm Heavy Thunderstorms and Rain
3:15 PM 60.8 °F 51.8 °F 72% 29.95 in 10.0 mi WSW 9.2 mph - 0.01 in Rain Light Rain
3:35 PM 61.2 °F 52.9 °F 74% 29.94 in 10.0 mi East 6.9 mph - 0.01 in Rain Light Rain
3:55 PM 65.5 °F 55.0 °F 69% 29.94 in 10.0 mi East 8.1 mph - 0.01 in   Mostly Cloudy
4:15 PM 68.2 °F 51.8 °F 56% 29.93 in 10.0 mi NE 6.9 mph - N/A   Scattered Clouds
4:35 PM 68.0 °F 53.4 °F 60% 29.95 in 10.0 mi West 9.2 mph - N/A   Scattered Clouds
4:55 PM 66.4 °F 54.1 °F 65% 29.95 in 10.0 mi East 10.4 mph - N/A   Scattered Clouds
5:15 PM 65.7 °F 51.8 °F 61% 29.96 in 10.0 mi East 6.9 mph - N/A   Mostly Cloudy
5:35 PM 64.4 °F 53.4 °F 67% 29.96 in 10.0 mi WSW 6.9 mph - N/A Rain , Thunderstorm Light Thunderstorms and Rain
5:55 PM 65.1 °F 52.3 °F 63% 29.97 in 10.0 mi ESE 8.1 mph - N/A   Scattered Clouds
6:15 PM 65.1 °F 53.8 °F 67% 29.94 in 10.0 mi NNE 8.1 mph - N/A   Clear
6:35 PM 64.0 °F 53.1 °F 67% 29.94 in 10.0 mi ESE 5.8 mph - N/A   Clear
6:55 PM 65.3 °F 52.2 °F 62% 29.95 in 10.0 mi ESE 3.5 mph - N/A   Scattered Clouds
7:15 PM 63.5 °F 52.0 °F 66% 29.97 in 10.0 mi Calm Calm - N/A   Scattered Clouds
7:35 PM 61.7 °F 55.0 °F 79% 29.98 in 10.0 mi West 8.1 mph - N/A   Clear
7:55 PM 59.7 °F 54.9 °F 84% 29.99 in 10.0 mi West 8.1 mph - N/A   Clear
8:15 PM 59.9 °F 54.1 °F 81% 30.00 in 10.0 mi WSW 4.6 mph - N/A   Clear
8:35 PM 59.2 °F 53.4 °F 81% 30.01 in 10.0 mi WSW 8.1 mph - N/A   Clear
8:55 PM 59.9 °F 52.7 °F 77% 30.02 in 10.0 mi West 8.1 mph - N/A   Clear
9:15 PM 58.5 °F 53.1 °F 82% 30.03 in 10.0 mi West 9.2 mph - N/A   Clear
9:35 PM 59.7 °F 53.6 °F 80% 30.05 in 10.0 mi West 11.5 mph - N/A   Clear
9:55 PM 58.6 °F 52.7 °F 81% 30.06 in 10.0 mi West 9.2 mph - N/A   Clear
10:15 PM 58.6 °F 48.9 °F 70% 30.06 in 10.0 mi West 9.2 mph 16.1 mph N/A   Clear
10:35 PM 57.7 °F 48.6 °F 71% 30.07 in 10.0 mi WSW 3.5 mph - N/A   Clear
10:55 PM 56.7 °F 48.6 °F 74% 30.08 in 10.0 mi WSW 3.5 mph - N/A   Scattered Clouds
11:15 PM 56.3 °F 48.2 °F 74% 30.08 in 10.0 mi SW 4.6 mph - N/A   Scattered Clouds
11:35 PM 55.2 °F 47.5 °F 75% 30.07 in 10.0 mi WSW 4.6 mph - N/A   Clear
11:55 PM 56.7 °F 47.5 °F 71% 30.07 in 10.0 mi Calm Calm - N/A   Clear